Time,TemperatureF,DewpointF,PressureIn,WindDirection,WindDirectionDegrees,WindSpeedMPH,WindSpeedGustMPH,Humidity,HourlyPrecipIn,Conditions,Clouds,dailyrainin,SoftwareType,DateUTC
2013-08-26 00:01:00,59.8,57.5,30.16,West,269,0.0,0.0,92,0.00,CLR,,0.00,WeatherDisplay:10.37,2013-08-26 04:01:00,
2013-08-26 00:02:00,59.8,57.5,30.16,West,269,0.0,0.0,92,0.00,CLR,,0.00,WeatherDisplay:10.37,2013-08-26 04:02:00,
2013-08-26 00:07:00,59.8,57.5,30.16,West,269,0.0,0.0,92,0.00,CLR,,0.00,WeatherDisplay:10.37,2013-08-26 04:07:00,
2013-08-26 00:12:00,59.9,57.3,30.16,West,269,0.0,0.0,91,0.00,CLR,,0.00,WeatherDisplay:10.37,2013-08-26 04:12:00,
2013-08-26 00:17:00,59.9,57.3,30.16,West,269,0.0,0.0,91,0.00,CLR,,0.00,WeatherDisplay:10.37,2013-08-26 04:17:00,
2013-08-26 00:22:00,60.0,57.4,30.15,West,269,0.0,0.0,91,0.00,CLR,,0.00,WeatherDisplay:10.37,2013-08-26 04:22:00,
2013-08-26 00:27:00,60.1,57.5,30.15,West,269,0.0,0.0,91,0.00,CLR,,0.00,WeatherDisplay:10.37,2013-08-26 04:27:00,
2013-08-26 00:32:00,60.2,57.6,30.15,West,269,0.0,0.0,91,0.00,CLR,,0.00,WeatherDisplay:10.37,2013-08-26 04:32:00,
2013-08-26 00:37:00,60.3,57.7,30.15,West,269,0.0,0.0,91,0.00,CLR,,0.00,WeatherDisplay:10.37,2013-08-26 04:37:00,
2013-08-26 00:43:00,60.5,57.6,30.15,West,269,0.0,0.0,90,0.00,CLR,,0.00,WeatherDisplay:10.37,2013-08-26 04:43:00,
2013-08-26 00:48:00,60.5,57.6,30.15,West,269,0.0,0.0,90,0.00,CLR,,0.00,WeatherDisplay:10.37,2013-08-26 04:48:00,
2013-08-26 00:53:00,60.7,57.7,30.15,West,269,0.0,0.0,90,0.00,CLR,,0.00,WeatherDisplay:10.37,2013-08-26 04:53:00,
2013-08-26 00:58:00,60.7,57.4,30.15,West,269,0.0,0.0,89,0.00,CLR,,0.00,WeatherDisplay:10.37,2013-08-26 04:58:00,
2013-08-26 01:03:00,61.0,57.1,30.15,West,269,1.2,0.0,87,0.00,CLR,,0.00,WeatherDisplay:10.37,2013-08-26 05:03:00,
2013-08-26 01:08:00,61.3,57.4,30.15,West,269,0.0,0.0,87,0.00,CLR,,0.00,WeatherDisplay:10.37,2013-08-26 05:08:00,
2013-08-26 01:13:00,61.5,57.3,30.15,West,269,0.0,0.0,86,0.00,CLR,,0.00,WeatherDisplay:10.37,2013-08-26 05:13:00,
2013-08-26 01:19:00,61.7,57.1,30.15,West,269,0.0,0.0,85,0.00,CLR,,0.00,WeatherDisplay:10.37,2013-08-26 05:19:00,
2013-08-26 01:24:00,61.9,57.3,30.15,West,269,0.0,0.0,85,0.00,CLR,,0.00,WeatherDisplay:10.37,2013-08-26 05:24:00,
2013-08-26 01:29:00,62.1,57.2,30.15,West,269,0.0,0.0,84,0.00,CLR,,0.00,WeatherDisplay:10.37,2013-08-26 05:29:00,
2013-08-26 01:34:00,62.2,57.0,30.15,West,269,0.0,0.0,83,0.00,CLR,,0.00,WeatherDisplay:10.37,2013-08-26 05:34:00,
2013-08-26 01:39:00,62.3,57.1,30.15,West,269,0.0,0.0,83,0.00,CLR,,0.00,WeatherDisplay:10.37,2013-08-26 05:39:00,
2013-08-26 01:44:00,62.4,57.5,30.15,West,269,0.0,0.0,84,0.00,CLR,,0.00,WeatherDisplay:10.37,2013-08-26 05:44:00,
2013-08-26 01:49:00,62.4,57.8,30.15,West,269,0.0,0.0,85,0.00,CLR,,0.00,WeatherDisplay:10.37,2013-08-26 05:49:00,
2013-08-26 01:54:00,62.4,58.2,30.15,West,269,0.0,0.0,86,0.00,CLR,,0.00,WeatherDisplay:10.37,2013-08-26 05:54:00,
2013-08-26 01:59:00,62.3,58.1,30.15,West,269,0.0,0.0,86,0.00,CLR,,0.00,WeatherDisplay:10.37,2013-08-26 05:59:00,
2013-08-26 02:04:00,62.2,58.3,30.15,West,269,0.0,0.0,87,0.00,CLR,,0.00,WeatherDisplay:10.37,2013-08-26 06:04:00,
2013-08-26 02:09:00,62.0,58.4,30.15,West,269,0.0,0.0,88,0.00,CLR,,0.00,WeatherDisplay:10.37,2013-08-26 06:09:00,
2013-08-26 02:14:00,61.7,58.4,30.15,West,269,0.0,0.0,89,0.00,-RA,,0.00,WeatherDisplay:10.37,2013-08-26 06:14:00,
2013-08-26 02:19:00,61.4,58.4,30.16,West,269,0.0,0.0,90,0.00,-RA,,0.00,WeatherDisplay:10.37,2013-08-26 06:19:00,
2013-08-26 02:24:00,61.2,58.6,30.15,West,269,0.0,0.0,91,0.00,-RA,,0.00,WeatherDisplay:10.37,2013-08-26 06:24:00,
2013-08-26 02:29:00,60.9,58.6,30.15,West,269,0.0,0.0,92,0.00,-RA,,0.00,WeatherDisplay:10.37,2013-08-26 06:29:00,
2013-08-26 02:34:00,60.7,58.4,30.15,West,269,0.0,0.0,92,0.00,-RA,,0.00,WeatherDisplay:10.37,2013-08-26 06:34:00,
2013-08-26 02:39:00,60.5,58.5,30.14,West,269,0.0,0.0,93,0.01,-RA,,0.01,WeatherDisplay:10.37,2013-08-26 06:39:00,
2013-08-26 02:44:00,60.4,58.4,30.14,West,269,0.0,0.0,93,0.01,-RA,,0.01,WeatherDisplay:10.37,2013-08-26 06:44:00,
2013-08-26 02:49:00,60.3,58.6,30.14,West,269,0.0,0.0,94,0.01,-RA,,0.01,WeatherDisplay:10.37,2013-08-26 06:49:00,
2013-08-26 02:54:00,60.2,58.5,30.14,West,269,0.0,0.0,94,0.01,-RA,,0.01,WeatherDisplay:10.37,2013-08-26 06:54:00,
2013-08-26 02:59:00,60.0,58.3,30.13,West,269,0.0,0.0,94,0.01,-RA,,0.01,WeatherDisplay:10.37,2013-08-26 06:59:00,
2013-08-26 03:04:00,60.0,58.3,30.13,West,269,0.0,0.0,94,0.01,-RA,,0.01,WeatherDisplay:10.37,2013-08-26 07:04:00,
2013-08-26 03:09:00,59.9,58.2,30.12,West,269,0.0,0.0,94,0.01,-RA,,0.01,WeatherDisplay:10.37,2013-08-26 07:09:00,
2013-08-26 03:14:00,59.8,58.4,30.12,West,269,0.0,0.0,95,0.01,-RA,,0.01,WeatherDisplay:10.37,2013-08-26 07:14:00,
2013-08-26 03:19:00,59.7,58.3,30.11,West,269,0.0,0.0,95,0.01,-RA,,0.01,WeatherDisplay:10.37,2013-08-26 07:19:00,
2013-08-26 03:24:00,59.7,58.3,30.11,West,269,0.0,0.0,95,0.01,-RA,,0.01,WeatherDisplay:10.37,2013-08-26 07:24:00,
2013-08-26 03:29:00,59.7,58.3,30.10,West,269,0.0,0.0,95,0.01,-RA,,0.01,WeatherDisplay:10.37,2013-08-26 07:29:00,
2013-08-26 03:34:00,59.7,58.6,30.10,West,269,0.0,0.0,96,0.01,-RA,,0.01,WeatherDisplay:10.37,2013-08-26 07:34:00,
2013-08-26 03:39:00,59.7,58.6,30.10,West,269,0.0,0.0,96,0.00,-RA,,0.01,WeatherDisplay:10.37,2013-08-26 07:39:00,
2013-08-26 03:44:00,59.7,58.6,30.10,West,269,0.0,0.5,96,0.00,-RA,,0.01,WeatherDisplay:10.37,2013-08-26 07:44:00,
2013-08-26 03:49:00,59.7,58.6,30.10,West,273,0.0,0.0,96,0.00,-RA,,0.01,WeatherDisplay:10.37,2013-08-26 07:49:00,
2013-08-26 03:54:00,59.7,58.6,30.10,West,273,0.0,0.0,96,0.00,-RA,,0.01,WeatherDisplay:10.37,2013-08-26 07:54:00,
2013-08-26 03:59:00,59.6,58.5,30.10,West,273,0.0,0.0,96,0.00,-RA,,0.01,WeatherDisplay:10.37,2013-08-26 07:59:00,
2013-08-26 04:04:00,59.7,58.6,30.10,West,273,0.0,0.0,96,0.00,-RA,,0.01,WeatherDisplay:10.37,2013-08-26 08:04:00,
2013-08-26 04:09:00,59.7,58.6,30.10,West,273,0.0,0.0,96,0.00,-RA,,0.01,WeatherDisplay:10.37,2013-08-26 08:09:00,
2013-08-26 04:14:00,59.7,58.6,30.10,West,273,0.0,0.0,96,0.00,-RA,,0.01,WeatherDisplay:10.37,2013-08-26 08:14:00,
2013-08-26 04:19:00,59.7,58.6,30.10,West,273,0.0,0.0,96,0.00,-RA,,0.01,WeatherDisplay:10.37,2013-08-26 08:19:00,
2013-08-26 04:24:00,59.7,58.6,30.10,West,273,0.0,0.0,96,0.01,-RA,,0.02,WeatherDisplay:10.37,2013-08-26 08:24:00,
2013-08-26 04:29:00,59.7,58.6,30.10,West,273,0.0,0.0,96,0.01,-RA,,0.02,WeatherDisplay:10.37,2013-08-26 08:29:00,
2013-08-26 04:34:00,59.8,58.7,30.10,West,273,0.0,0.0,96,0.01,-RA,,0.02,WeatherDisplay:10.37,2013-08-26 08:34:00,
2013-08-26 04:39:00,59.7,58.6,30.10,West,273,0.0,0.0,96,0.01,-RA,,0.02,WeatherDisplay:10.37,2013-08-26 08:39:00,
2013-08-26 04:44:00,59.7,58.6,30.10,West,273,0.0,0.0,96,0.01,-RA,,0.02,WeatherDisplay:10.37,2013-08-26 08:44:00,
2013-08-26 04:49:00,59.6,58.7,30.10,West,273,0.0,0.0,97,0.01,-RA,,0.02,WeatherDisplay:10.37,2013-08-26 08:49:00,
2013-08-26 04:54:00,59.6,58.7,30.10,West,273,0.0,0.0,97,0.01,-RA,,0.02,WeatherDisplay:10.37,2013-08-26 08:54:00,
2013-08-26 04:59:00,59.6,58.7,30.11,West,273,0.0,0.0,97,0.01,-RA,,0.02,WeatherDisplay:10.37,2013-08-26 08:59:00,
2013-08-26 05:04:00,59.6,58.7,30.10,West,273,0.0,0.0,97,0.02,-RA,,0.03,WeatherDisplay:10.37,2013-08-26 09:04:00,
2013-08-26 05:09:00,59.6,58.7,30.10,West,273,0.0,0.0,97,0.02,-RA,,0.03,WeatherDisplay:10.37,2013-08-26 09:09:00,
2013-08-26 05:14:00,59.6,58.7,30.10,West,273,0.0,0.0,97,0.02,-RA,,0.03,WeatherDisplay:10.37,2013-08-26 09:14:00,
2013-08-26 05:19:00,59.5,58.6,30.10,West,273,0.0,0.0,97,0.02,-RA,,0.03,WeatherDisplay:10.37,2013-08-26 09:19:00,
2013-08-26 05:24:00,59.5,58.6,30.10,West,273,0.0,0.0,97,0.02,-RA,,0.04,WeatherDisplay:10.37,2013-08-26 09:24:00,
2013-08-26 05:29:00,59.5,58.6,30.09,West,273,0.0,0.0,97,0.02,-RA,,0.04,WeatherDisplay:10.37,2013-08-26 09:29:00,
2013-08-26 05:34:00,59.5,58.6,30.09,West,273,0.0,0.0,97,0.02,-RA,,0.04,WeatherDisplay:10.37,2013-08-26 09:34:00,
2013-08-26 05:39:00,59.4,58.5,30.09,West,273,0.0,0.0,97,0.02,-RA,,0.04,WeatherDisplay:10.37,2013-08-26 09:39:00,
2013-08-26 05:44:00,59.4,58.5,30.09,West,273,0.0,0.0,97,0.03,-RA,,0.05,WeatherDisplay:10.37,2013-08-26 09:44:00,
2013-08-26 05:49:00,59.4,58.5,30.08,West,273,0.0,0.0,97,0.03,-RA,,0.05,WeatherDisplay:10.37,2013-08-26 09:49:00,
2013-08-26 05:54:00,59.3,58.4,30.08,West,273,0.0,0.0,97,0.03,-RA,,0.05,WeatherDisplay:10.37,2013-08-26 09:54:00,
2013-08-26 05:59:00,59.3,58.4,30.08,West,273,0.0,0.0,97,0.04,-RA,,0.06,WeatherDisplay:10.37,2013-08-26 09:59:00,
2013-08-26 06:04:00,59.3,58.4,30.08,West,273,0.0,0.0,97,0.03,-RA,,0.06,WeatherDisplay:10.37,2013-08-26 10:04:00,
2013-08-26 06:09:00,59.4,58.5,30.08,West,273,0.0,0.0,97,0.03,-RA,,0.06,WeatherDisplay:10.37,2013-08-26 10:09:00,
2013-08-26 06:14:00,59.4,58.8,30.07,West,273,0.0,0.0,98,0.03,-RA,,0.06,WeatherDisplay:10.37,2013-08-26 10:14:00,
2013-08-26 06:19:00,59.5,58.9,30.07,West,273,0.0,0.0,98,0.03,-RA,,0.06,WeatherDisplay:10.37,2013-08-26 10:19:00,
2013-08-26 06:24:00,59.4,58.8,30.07,West,273,0.0,0.0,98,0.02,-RA,,0.06,WeatherDisplay:10.37,2013-08-26 10:24:00,
2013-08-26 06:30:00,59.5,58.9,30.06,West,269,0.0,0.0,98,0.02,-RA,,0.06,WeatherDisplay:10.37,2013-08-26 10:30:00,
2013-08-26 06:35:00,59.5,58.9,30.06,WSW,254,0.0,0.1,98,0.02,-RA,,0.06,WeatherDisplay:10.37,2013-08-26 10:35:00,
2013-08-26 06:40:00,59.5,58.9,30.06,West,277,2.3,2.3,98,0.02,-RA,,0.06,WeatherDisplay:10.37,2013-08-26 10:40:00,
2013-08-26 06:45:00,59.6,59.0,30.06,WSW,246,0.0,0.0,98,0.01,-RA,,0.06,WeatherDisplay:10.37,2013-08-26 10:45:00,
2013-08-26 06:50:00,59.6,59.0,30.05,SW,218,2.3,2.3,98,0.01,-RA,,0.06,WeatherDisplay:10.37,2013-08-26 10:50:00,
2013-08-26 06:55:00,59.7,59.1,30.06,West,271,1.2,1.2,98,0.01,-RA,,0.06,WeatherDisplay:10.37,2013-08-26 10:55:00,
2013-08-26 07:00:00,59.7,59.1,30.06,West,271,0.0,0.8,98,0.00,-RA,,0.06,WeatherDisplay:10.37,2013-08-26 11:00:00,
2013-08-26 07:05:00,59.7,59.1,30.06,SSW,192,0.0,0.0,98,0.00,-RA,,0.06,WeatherDisplay:10.37,2013-08-26 11:05:00,
2013-08-26 07:10:00,59.7,59.1,30.05,NW,307,0.0,0.1,98,0.00,-RA,,0.06,WeatherDisplay:10.37,2013-08-26 11:10:00,
2013-08-26 07:15:00,59.7,59.1,30.05,SSE,162,0.0,0.0,98,0.00,-RA,,0.06,WeatherDisplay:10.37,2013-08-26 11:15:00,
2013-08-26 07:20:00,59.8,59.2,30.05,South,190,0.0,0.0,98,0.00,-RA,,0.06,WeatherDisplay:10.37,2013-08-26 11:20:00,
2013-08-26 07:25:00,59.8,59.2,30.06,East,89,1.2,1.2,98,0.00,-RA,,0.06,WeatherDisplay:10.37,2013-08-26 11:25:00,
2013-08-26 07:30:00,59.9,59.3,30.05,East,89,1.2,1.2,98,0.00,-RA,,0.06,WeatherDisplay:10.37,2013-08-26 11:30:00,
2013-08-26 07:35:00,59.9,59.3,30.05,SSW,212,0.0,1.3,98,0.00,-RA,,0.06,WeatherDisplay:10.37,2013-08-26 11:35:00,
2013-08-26 07:40:00,60.1,59.5,30.05,SSW,196,1.2,1.2,98,0.00,-RA,,0.06,WeatherDisplay:10.37,2013-08-26 11:40:00,
2013-08-26 07:45:00,60.2,59.6,30.05,NNW,345,0.0,0.3,98,0.00,-RA,,0.06,WeatherDisplay:10.37,2013-08-26 11:45:00,
2013-08-26 07:50:00,60.3,59.7,30.04,NNW,345,0.0,0.1,98,0.00,-RA,,0.06,WeatherDisplay:10.37,2013-08-26 11:50:00,
2013-08-26 07:55:00,60.4,59.8,30.05,NNE,23,1.2,1.2,98,0.00,OVC,,0.06,WeatherDisplay:10.37,2013-08-26 11:55:00,
2013-08-26 08:00:00,60.4,59.8,30.04,East,86,1.2,1.2,98,0.00,OVC,,0.06,WeatherDisplay:10.37,2013-08-26 12:00:00,
2013-08-26 08:05:00,60.5,59.9,30.03,ESE,122,1.2,1.2,98,0.00,OVC,,0.06,WeatherDisplay:10.37,2013-08-26 12:05:00,
2013-08-26 08:10:00,60.6,60.0,30.03,ESE,121,1.2,1.2,98,0.00,OVC,,0.06,WeatherDisplay:10.37,2013-08-26 12:10:00,
2013-08-26 08:15:00,60.7,59.8,30.03,South,182,2.3,2.3,97,0.00,OVC,,0.06,WeatherDisplay:10.37,2013-08-26 12:15:00,
2013-08-26 08:20:00,60.9,60.3,30.03,South,182,0.0,0.5,98,0.00,OVC,,0.06,WeatherDisplay:10.37,2013-08-26 12:20:00,
2013-08-26 08:25:00,61.0,60.4,30.03,NW,308,0.0,0.0,98,0.00,OVC,,0.06,WeatherDisplay:10.37,2013-08-26 12:25:00,
2013-08-26 08:30:00,61.2,60.3,30.03,NW,308,2.3,2.3,97,0.00,OVC,,0.06,WeatherDisplay:10.37,2013-08-26 12:30:00,
2013-08-26 08:35:00,61.4,60.5,30.04,NW,308,0.0,0.0,97,0.00,OVC,,0.06,WeatherDisplay:10.37,2013-08-26 12:35:00,
2013-08-26 08:40:00,61.7,60.8,30.03,WNW,302,1.2,1.2,97,0.00,OVC,,0.06,WeatherDisplay:10.37,2013-08-26 12:40:00,
2013-08-26 08:45:00,61.8,60.9,30.03,SSW,205,2.3,2.3,97,0.00,OVC,,0.06,WeatherDisplay:10.37,2013-08-26 12:45:00,
2013-08-26 08:50:00,62.0,60.8,30.03,NNE,18,2.3,2.3,96,0.00,OVC,,0.06,WeatherDisplay:10.37,2013-08-26 12:50:00,
2013-08-26 08:55:00,62.2,61.0,30.03,SE,144,0.0,0.0,96,0.00,OVC,,0.06,WeatherDisplay:10.37,2013-08-26 12:55:00,
2013-08-26 09:00:00,62.5,61.3,30.03,SE,144,1.2,0.0,96,0.00,OVC,,0.06,WeatherDisplay:10.37,2013-08-26 13:00:00,
2013-08-26 09:05:00,62.8,61.3,30.02,South,182,1.2,1.2,95,0.00,OVC,,0.06,WeatherDisplay:10.37,2013-08-26 13:05:00,
2013-08-26 09:10:00,62.9,61.4,30.02,SSW,211,0.0,0.2,95,0.00,OVC,,0.06,WeatherDisplay:10.37,2013-08-26 13:10:00,
2013-08-26 09:15:00,63.2,61.4,30.02,West,270,1.2,1.2,94,0.00,OVC,,0.06,WeatherDisplay:10.37,2013-08-26 13:15:00,
2013-08-26 09:20:00,63.6,61.5,30.02,SSW,211,0.0,0.1,93,0.00,OVC,,0.06,WeatherDisplay:10.37,2013-08-26 13:20:00,
2013-08-26 09:25:00,64.0,61.9,30.02,SE,124,2.3,2.3,93,0.00,BKN,,0.06,WeatherDisplay:10.37,2013-08-26 13:25:00,
2013-08-26 09:30:00,64.5,62.1,30.01,West,260,1.2,0.0,92,0.00,BKN,,0.06,WeatherDisplay:10.37,2013-08-26 13:30:00,
2013-08-26 09:35:00,64.9,62.2,30.01,ESE,103,2.3,2.3,91,0.00,BKN,,0.06,WeatherDisplay:10.37,2013-08-26 13:35:00,
2013-08-26 09:40:00,65.0,62.6,30.01,WSW,246,1.2,2.0,92,0.00,BKN,,0.06,WeatherDisplay:10.37,2013-08-26 13:40:00,
2013-08-26 09:45:00,65.3,62.6,30.01,NNW,336,3.5,3.5,91,0.00,BKN,,0.06,WeatherDisplay:10.37,2013-08-26 13:45:00,
2013-08-26 09:50:00,65.7,62.4,30.01,West,262,2.3,2.3,89,0.00,BKN,,0.06,WeatherDisplay:10.37,2013-08-26 13:50:00,
2013-08-26 09:55:00,66.1,62.1,30.01,WNW,293,3.5,3.5,87,0.00,BKN,,0.06,WeatherDisplay:10.37,2013-08-26 13:55:00,
2013-08-26 10:00:00,66.5,62.2,30.01,West,268,3.5,3.5,86,0.00,BKN,,0.06,WeatherDisplay:10.37,2013-08-26 14:00:00,
2013-08-26 10:05:00,67.2,62.9,30.00,West,265,3.5,3.6,86,0.00,BKN,,0.06,WeatherDisplay:10.37,2013-08-26 14:05:00,
2013-08-26 10:10:00,67.8,62.1,30.00,SSW,203,5.8,6.0,82,0.00,BKN,,0.06,WeatherDisplay:10.37,2013-08-26 14:10:00,
2013-08-26 10:15:00,68.2,62.5,30.00,NNE,23,0.0,4.9,82,0.00,BKN,,0.06,WeatherDisplay:10.37,2013-08-26 14:15:00,
2013-08-26 10:20:00,68.8,62.7,30.00,SE,138,3.5,3.9,81,0.00,BKN,,0.06,WeatherDisplay:10.37,2013-08-26 14:20:00,
2013-08-26 10:25:00,69.2,62.8,30.00,WSW,245,4.6,4.6,80,0.00,BKN,,0.06,WeatherDisplay:10.37,2013-08-26 14:25:00,
2013-08-26 10:30:00,69.5,63.1,30.00,SE,126,3.5,3.5,80,0.00,BKN,,0.06,WeatherDisplay:10.37,2013-08-26 14:30:00,
2013-08-26 10:35:00,69.9,63.8,30.00,NNW,344,2.3,2.3,81,0.00,BKN,,0.06,WeatherDisplay:10.37,2013-08-26 14:35:00,
2013-08-26 10:40:00,70.4,63.6,30.00,NNE,30,1.2,1.2,79,0.00,BKN,,0.06,WeatherDisplay:10.37,2013-08-26 14:40:00,
2013-08-26 10:45:00,70.7,63.5,30.00,NE,38,6.9,6.9,78,0.00,BKN,,0.06,WeatherDisplay:10.37,2013-08-26 14:45:00,
2013-08-26 10:50:00,70.9,64.1,29.99,SSE,158,3.5,3.5,79,0.00,BKN,,0.06,WeatherDisplay:10.37,2013-08-26 14:50:00,
2013-08-26 10:55:00,71.4,64.2,30.00,SE,144,5.8,5.8,78,0.00,BKN,,0.06,WeatherDisplay:10.37,2013-08-26 14:55:00,
2013-08-26 11:00:00,71.6,64.0,30.00,SE,128,3.5,3.5,77,0.00,BKN,,0.06,WeatherDisplay:10.37,2013-08-26 15:00:00,
2013-08-26 11:05:00,71.9,65.0,30.00,ENE,63,2.3,2.3,79,0.00,CLR,,0.06,WeatherDisplay:10.37,2013-08-26 15:05:00,
2013-08-26 11:10:00,72.4,64.8,29.99,East,82,3.5,3.5,77,0.00,CLR,,0.06,WeatherDisplay:10.37,2013-08-26 15:10:00,
2013-08-26 11:15:00,72.9,64.9,29.99,SE,134,4.6,5.0,76,0.00,CLR,,0.06,WeatherDisplay:10.37,2013-08-26 15:15:00,
2013-08-26 11:20:00,73.1,65.8,29.99,NNW,333,3.5,3.5,78,0.00,CLR,,0.06,WeatherDisplay:10.37,2013-08-26 15:20:00,
2013-08-26 11:25:00,73.4,64.6,29.99,NNE,32,4.6,5.0,74,0.00,CLR,,0.06,WeatherDisplay:10.37,2013-08-26 15:25:00,
2013-08-26 11:30:00,73.4,64.6,29.99,North,355,3.5,3.5,74,0.00,CLR,,0.06,WeatherDisplay:10.37,2013-08-26 15:30:00,
2013-08-26 11:35:00,74.1,64.9,29.98,South,190,3.5,4.0,73,0.00,CLR,,0.06,WeatherDisplay:10.37,2013-08-26 15:35:00,
2013-08-26 11:40:00,74.3,65.1,29.98,South,191,8.1,8.1,73,0.00,CLR,,0.06,WeatherDisplay:10.37,2013-08-26 15:40:00,
2013-08-26 11:45:00,74.2,65.0,29.98,NW,321,3.5,3.9,73,0.00,CLR,,0.06,WeatherDisplay:10.37,2013-08-26 15:45:00,
2013-08-26 11:50:00,74.2,65.4,29.98,SW,222,6.0,6.0,74,0.00,CLR,,0.06,WeatherDisplay:10.37,2013-08-26 15:50:00,
2013-08-26 11:55:00,74.2,65.8,29.98,NE,56,2.3,2.3,75,0.00,CLR,,0.06,WeatherDisplay:10.37,2013-08-26 15:55:00,
2013-08-26 12:00:00,74.2,65.8,29.97,South,170,2.3,2.3,75,0.00,CLR,,0.06,WeatherDisplay:10.37,2013-08-26 16:00:00,
2013-08-26 12:05:00,73.9,65.1,29.97,SE,131,3.5,3.5,74,0.00,CLR,,0.06,WeatherDisplay:10.37,2013-08-26 16:05:00,
2013-08-26 12:10:00,73.6,65.2,29.97,ESE,119,6.9,7.0,75,0.00,CLR,,0.06,WeatherDisplay:10.37,2013-08-26 16:10:00,
2013-08-26 12:15:00,73.6,65.2,29.97,ESE,109,3.5,3.5,75,0.00,CLR,,0.06,WeatherDisplay:10.37,2013-08-26 16:15:00,
2013-08-26 12:20:00,74.2,65.8,29.97,NE,55,4.6,4.6,75,0.00,CLR,,0.06,WeatherDisplay:10.37,2013-08-26 16:20:00,
2013-08-26 12:26:00,74.4,66.0,29.97,NE,39,8.1,8.1,75,0.00,CLR,,0.06,WeatherDisplay:10.37,2013-08-26 16:26:00,
2013-08-26 12:31:00,74.7,65.5,29.96,WSW,243,9.2,9.2,73,0.00,CLR,,0.06,WeatherDisplay:10.37,2013-08-26 16:31:00,
2013-08-26 12:36:00,74.4,65.2,29.96,North,355,9.2,9.2,73,0.00,CLR,,0.06,WeatherDisplay:10.37,2013-08-26 16:36:00,
2013-08-26 12:41:00,74.2,65.0,29.96,WSW,238,9.2,9.2,73,0.00,CLR,,0.06,WeatherDisplay:10.37,2013-08-26 16:41:00,
2013-08-26 12:46:00,74.0,64.8,29.96,NW,316,3.5,3.5,73,0.00,CLR,,0.06,WeatherDisplay:10.37,2013-08-26 16:46:00,
2013-08-26 12:51:00,74.0,65.2,29.95,East,94,2.3,2.3,74,0.00,CLR,,0.06,WeatherDisplay:10.37,2013-08-26 16:51:00,
2013-08-26 12:56:00,74.0,64.8,29.95,NNE,12,3.5,3.5,73,0.00,CLR,,0.06,WeatherDisplay:10.37,2013-08-26 16:56:00,
2013-08-26 13:01:00,73.8,64.6,29.95,South,185,2.3,3.2,73,0.00,CLR,,0.06,WeatherDisplay:10.37,2013-08-26 17:01:00,
2013-08-26 13:06:00,73.6,64.8,29.95,West,264,4.6,4.6,74,0.00,CLR,,0.06,WeatherDisplay:10.37,2013-08-26 17:06:00,
2013-08-26 13:11:00,73.6,65.2,29.95,SSE,151,3.0,3.0,75,0.00,CLR,,0.06,WeatherDisplay:10.37,2013-08-26 17:11:00,
2013-08-26 13:16:00,73.7,64.9,29.95,SE,145,3.5,3.7,74,0.00,CLR,,0.06,WeatherDisplay:10.37,2013-08-26 17:16:00,
2013-08-26 13:21:00,73.8,65.4,29.95,NNW,343,1.2,1.2,75,0.00,CLR,,0.06,WeatherDisplay:10.37,2013-08-26 17:21:00,
2013-08-26 13:26:00,73.9,65.1,29.94,WSW,250,4.6,4.6,74,0.00,CLR,,0.06,WeatherDisplay:10.37,2013-08-26 17:26:00,
2013-08-26 13:31:00,73.9,64.7,29.94,NE,44,4.6,4.6,73,0.00,CLR,,0.06,WeatherDisplay:10.37,2013-08-26 17:31:00,
2013-08-26 13:36:00,73.7,64.5,29.94,NNE,28,1.2,1.2,73,0.00,CLR,,0.06,WeatherDisplay:10.37,2013-08-26 17:36:00,
2013-08-26 13:41:00,73.7,65.3,29.94,SSE,157,2.3,0.0,75,0.00,CLR,,0.06,WeatherDisplay:10.37,2013-08-26 17:41:00,
2013-08-26 13:46:00,73.9,65.9,29.94,NE,38,3.5,3.5,76,0.00,CLR,,0.06,WeatherDisplay:10.37,2013-08-26 17:46:00,
2013-08-26 13:51:00,74.3,65.9,29.94,ENE,64,2.3,3.0,75,0.00,CLR,,0.06,WeatherDisplay:10.37,2013-08-26 17:51:00,
2013-08-26 13:56:00,74.8,65.2,29.93,ENE,62,3.5,3.5,72,0.00,CLR,,0.06,WeatherDisplay:10.37,2013-08-26 17:56:00,
2013-08-26 14:01:00,75.1,66.2,29.93,South,184,3.5,3.5,74,0.00,CLR,,0.06,WeatherDisplay:10.37,2013-08-26 18:01:00,
2013-08-26 14:06:00,75.7,66.8,29.93,SW,215,3.5,3.5,74,0.00,CLR,,0.06,WeatherDisplay:10.37,2013-08-26 18:06:00,
2013-08-26 14:11:00,75.9,66.6,29.93,SSW,209,5.8,5.8,73,0.00,CLR,,0.06,WeatherDisplay:10.37,2013-08-26 18:11:00,
2013-08-26 14:16:00,75.8,66.1,29.92,NNW,339,5.8,5.8,72,0.00,CLR,,0.06,WeatherDisplay:10.37,2013-08-26 18:16:00,
2013-08-26 14:21:00,75.8,66.1,29.92,East,87,3.0,3.0,72,0.00,CLR,,0.06,WeatherDisplay:10.37,2013-08-26 18:21:00,
2013-08-26 14:26:00,75.8,66.1,29.92,ESE,114,2.3,2.3,72,0.00,CLR,,0.06,WeatherDisplay:10.37,2013-08-26 18:26:00,
2013-08-26 14:31:00,75.9,66.2,29.92,North,5,3.5,3.5,72,0.00,CLR,,0.06,WeatherDisplay:10.37,2013-08-26 18:31:00,
2013-08-26 14:36:00,75.7,66.0,29.92,SW,218,4.6,4.6,72,0.00,OVC,,0.06,WeatherDisplay:10.37,2013-08-26 18:36:00,
2013-08-26 14:41:00,75.6,66.3,29.92,WNW,302,3.5,3.5,73,0.00,OVC,,0.06,WeatherDisplay:10.37,2013-08-26 18:41:00,
2013-08-26 14:46:00,75.2,65.9,29.92,North,360,6.9,6.9,73,0.00,OVC,,0.06,WeatherDisplay:10.37,2013-08-26 18:46:00,
2013-08-26 14:51:00,75.0,66.1,29.92,SE,126,4.6,4.6,74,0.00,OVC,,0.06,WeatherDisplay:10.37,2013-08-26 18:51:00,
2013-08-26 14:56:00,74.8,66.0,29.92,ESE,109,2.3,2.3,74,0.00,OVC,,0.06,WeatherDisplay:10.37,2013-08-26 18:56:00,
2013-08-26 15:01:00,74.6,66.5,29.92,SE,134,1.2,1.2,76,0.00,SCT,,0.06,WeatherDisplay:10.37,2013-08-26 19:01:00,
2013-08-26 15:06:00,74.1,66.0,29.92,ESE,103,0.0,1.5,76,0.00,SCT,,0.06,WeatherDisplay:10.37,2013-08-26 19:06:00,
2013-08-26 15:11:00,73.9,65.9,29.92,North,11,1.2,1.2,76,0.00,SCT,,0.06,WeatherDisplay:10.37,2013-08-26 19:11:00,
2013-08-26 15:16:00,73.7,66.4,29.91,WSW,250,0.0,0.0,78,0.00,SCT,,0.06,WeatherDisplay:10.37,2013-08-26 19:16:00,
2013-08-26 15:21:00,73.8,66.1,29.91,South,176,0.0,0.0,77,0.00,SCT,,0.06,WeatherDisplay:10.37,2013-08-26 19:21:00,
2013-08-26 15:26:00,73.8,66.5,29.90,NE,39,0.0,0.0,78,0.00,SCT,,0.06,WeatherDisplay:10.37,2013-08-26 19:26:00,
2013-08-26 15:31:00,73.8,66.9,29.91,ESE,115,0.0,0.2,79,0.00,SCT,,0.06,WeatherDisplay:10.37,2013-08-26 19:31:00,
2013-08-26 15:36:00,73.8,66.5,29.91,SSW,196,0.0,1.6,78,0.00,SCT,,0.06,WeatherDisplay:10.37,2013-08-26 19:36:00,
2013-08-26 15:41:00,73.7,67.1,29.91,SSW,196,1.2,0.0,80,0.00,SCT,,0.06,WeatherDisplay:10.37,2013-08-26 19:41:00,
2013-08-26 15:46:00,73.6,66.7,29.91,SSE,168,0.0,0.0,79,0.00,SCT,,0.06,WeatherDisplay:10.37,2013-08-26 19:46:00,
2013-08-26 15:51:00,73.5,66.9,29.91,ESE,111,2.3,2.3,80,0.00,SCT,,0.06,WeatherDisplay:10.37,2013-08-26 19:51:00,
2013-08-26 15:56:00,73.5,66.6,29.91,SE,134,3.5,3.5,79,0.00,OVC,,0.06,WeatherDisplay:10.37,2013-08-26 19:56:00,
2013-08-26 16:01:00,73.5,66.9,29.91,SE,134,1.2,1.2,80,0.00,OVC,,0.06,WeatherDisplay:10.37,2013-08-26 20:01:00,
2013-08-26 16:06:00,73.4,66.9,29.91,SSW,194,0.0,0.4,80,0.00,OVC,,0.06,WeatherDisplay:10.37,2013-08-26 20:06:00,
2013-08-26 16:11:00,73.4,66.5,29.91,SW,229,2.3,2.3,79,0.00,OVC,,0.06,WeatherDisplay:10.37,2013-08-26 20:11:00,
2013-08-26 16:16:00,73.4,66.9,29.91,SW,229,0.0,0.0,80,0.00,OVC,,0.06,WeatherDisplay:10.37,2013-08-26 20:16:00,
2013-08-26 16:21:00,73.4,66.9,29.90,WSW,258,2.3,2.3,80,0.00,OVC,,0.06,WeatherDisplay:10.37,2013-08-26 20:21:00,
2013-08-26 16:26:00,73.4,66.9,29.90,SW,224,0.0,0.0,80,0.00,OVC,,0.06,WeatherDisplay:10.37,2013-08-26 20:26:00,
2013-08-26 16:31:00,73.3,66.4,29.90,North,349,3.5,3.5,79,0.00,OVC,,0.06,WeatherDisplay:10.37,2013-08-26 20:31:00,
2013-08-26 16:36:00,73.2,66.3,29.90,NW,324,0.0,0.2,79,0.00,OVC,,0.06,WeatherDisplay:10.37,2013-08-26 20:36:00,
2013-08-26 16:41:00,73.1,66.6,29.90,West,260,1.2,1.2,80,0.00,OVC,,0.06,WeatherDisplay:10.37,2013-08-26 20:41:00,
2013-08-26 16:46:00,73.1,66.6,29.90,SSW,213,0.0,0.4,80,0.00,OVC,,0.06,WeatherDisplay:10.37,2013-08-26 20:46:00,
2013-08-26 16:51:00,73.0,66.5,29.90,NNW,337,0.0,0.0,80,0.00,OVC,,0.06,WeatherDisplay:10.37,2013-08-26 20:51:00,
2013-08-26 16:56:00,73.0,66.8,29.90,North,355,0.0,0.1,81,0.00,OVC,,0.06,WeatherDisplay:10.37,2013-08-26 20:56:00,
2013-08-26 17:01:00,72.9,66.7,29.90,North,355,0.0,0.6,81,0.00,OVC,,0.06,WeatherDisplay:10.37,2013-08-26 21:01:00,
2013-08-26 17:06:00,72.9,66.7,29.89,NNW,340,0.0,0.0,81,0.00,OVC,,0.06,WeatherDisplay:10.37,2013-08-26 21:06:00,
2013-08-26 17:11:00,72.9,67.1,29.89,SW,221,0.0,0.0,82,0.00,OVC,,0.06,WeatherDisplay:10.37,2013-08-26 21:11:00,
2013-08-26 17:16:00,72.8,66.6,29.89,South,190,3.5,3.5,81,0.00,OVC,,0.06,WeatherDisplay:10.37,2013-08-26 21:16:00,
2013-08-26 17:21:00,72.7,66.5,29.89,West,275,0.0,0.0,81,0.00,OVC,,0.06,WeatherDisplay:10.37,2013-08-26 21:21:00,
2013-08-26 17:26:00,72.7,66.5,29.89,West,275,0.0,0.0,81,0.00,OVC,,0.06,WeatherDisplay:10.37,2013-08-26 21:26:00,
2013-08-26 17:31:00,72.8,67.0,29.89,ENE,73,2.3,2.3,82,0.00,OVC,,0.06,WeatherDisplay:10.37,2013-08-26 21:31:00,
2013-08-26 17:36:00,72.8,67.0,29.89,West,263,1.2,1.2,82,0.00,OVC,,0.06,WeatherDisplay:10.37,2013-08-26 21:36:00,
2013-08-26 17:41:00,72.7,66.9,29.89,SSW,200,1.2,0.0,82,0.00,OVC,,0.06,WeatherDisplay:10.37,2013-08-26 21:41:00,
2013-08-26 17:46:00,72.6,66.8,29.88,NE,43,0.0,0.0,82,0.00,OVC,,0.06,WeatherDisplay:10.37,2013-08-26 21:46:00,
2013-08-26 17:51:00,72.6,67.5,29.88,ESE,114,1.2,1.2,84,0.00,OVC,,0.06,WeatherDisplay:10.37,2013-08-26 21:51:00,
2013-08-26 17:57:00,72.5,67.0,29.89,WSW,243,0.0,0.8,83,0.00,OVC,,0.06,WeatherDisplay:10.37,2013-08-26 21:57:00,
2013-08-26 18:02:00,72.5,67.0,29.89,WSW,242,0.0,0.8,83,0.00,OVC,,0.06,WeatherDisplay:10.37,2013-08-26 22:02:00,
2013-08-26 18:07:00,72.4,66.9,29.89,ESE,107,2.3,2.3,83,0.00,OVC,,0.06,WeatherDisplay:10.37,2013-08-26 22:07:00,
2013-08-26 18:12:00,72.3,66.8,29.89,NE,47,0.0,0.0,83,0.00,OVC,,0.06,WeatherDisplay:10.37,2013-08-26 22:12:00,
2013-08-26 18:17:00,72.2,66.7,29.89,ESE,123,1.2,0.0,83,0.00,OVC,,0.06,WeatherDisplay:10.37,2013-08-26 22:17:00,
2013-08-26 18:22:00,72.1,66.6,29.89,ESE,116,0.0,0.0,83,0.00,OVC,,0.06,WeatherDisplay:10.37,2013-08-26 22:22:00,
2013-08-26 18:27:00,72.1,66.6,29.89,WNW,300,3.0,3.0,83,0.00,OVC,,0.06,WeatherDisplay:10.37,2013-08-26 22:27:00,
2013-08-26 18:32:00,71.9,66.8,29.89,ESE,114,1.2,1.2,84,0.00,OVC,,0.06,WeatherDisplay:10.37,2013-08-26 22:32:00,
2013-08-26 18:37:00,71.8,66.7,29.89,South,188,0.0,0.1,84,0.00,OVC,,0.06,WeatherDisplay:10.37,2013-08-26 22:37:00,
2013-08-26 18:42:00,71.8,67.0,29.88,ENE,71,0.0,0.0,85,0.00,OVC,,0.06,WeatherDisplay:10.37,2013-08-26 22:42:00,
2013-08-26 18:47:00,71.7,66.6,29.88,ENE,71,0.0,0.0,84,0.00,OVC,,0.06,WeatherDisplay:10.37,2013-08-26 22:47:00,
2013-08-26 18:52:00,71.5,66.4,29.88,ENE,71,0.0,0.0,84,0.00,OVC,,0.06,WeatherDisplay:10.37,2013-08-26 22:52:00,
2013-08-26 18:57:00,71.4,66.3,29.89,ENE,71,0.0,0.2,84,0.00,OVC,,0.06,WeatherDisplay:10.37,2013-08-26 22:57:00,
2013-08-26 19:02:00,71.3,66.2,29.89,ENE,74,0.0,0.0,84,0.00,FEW,,0.06,WeatherDisplay:10.37,2013-08-26 23:02:00,
2013-08-26 19:07:00,71.1,66.4,29.88,ESE,123,0.0,0.0,85,0.00,FEW,,0.06,WeatherDisplay:10.37,2013-08-26 23:07:00,
2013-08-26 19:12:00,70.9,66.2,29.88,ESE,123,0.0,0.1,85,0.00,FEW,,0.06,WeatherDisplay:10.37,2013-08-26 23:12:00,
2013-08-26 19:17:00,70.7,66.3,29.89,ESE,123,0.0,0.0,86,0.00,FEW,,0.06,WeatherDisplay:10.37,2013-08-26 23:17:00,
2013-08-26 19:22:00,70.6,66.2,29.89,SE,124,0.0,0.0,86,0.00,FEW,,0.06,WeatherDisplay:10.37,2013-08-26 23:22:00,
2013-08-26 19:27:00,70.4,66.0,29.89,ESE,119,0.0,0.0,86,0.00,FEW,,0.06,WeatherDisplay:10.37,2013-08-26 23:27:00,
2013-08-26 19:32:00,70.3,65.9,29.89,SW,225,1.2,0.0,86,0.00,FEW,,0.06,WeatherDisplay:10.37,2013-08-26 23:32:00,
2013-08-26 19:37:00,70.2,65.8,29.89,SW,225,0.0,0.8,86,0.00,FEW,,0.06,WeatherDisplay:10.37,2013-08-26 23:37:00,
2013-08-26 19:42:00,70.1,66.0,29.89,SW,217,1.2,1.2,87,0.00,BKN,,0.06,WeatherDisplay:10.37,2013-08-26 23:42:00,
2013-08-26 19:47:00,70.0,66.0,29.89,WNW,294,0.0,0.0,87,0.00,BKN,,0.06,WeatherDisplay:10.37,2013-08-26 23:47:00,
2013-08-26 19:52:00,69.9,65.9,29.88,South,186,1.2,1.2,87,0.00,BKN,,0.06,WeatherDisplay:10.37,2013-08-26 23:52:00,
2013-08-26 19:57:00,69.9,65.9,29.88,South,186,0.0,0.4,87,0.00,BKN,,0.06,WeatherDisplay:10.37,2013-08-26 23:57:00,
2013-08-26 20:02:00,69.9,65.9,29.88,South,177,3.0,3.0,87,0.00,OVC,,0.06,WeatherDisplay:10.37,2013-08-27 00:02:00,
2013-08-26 20:07:00,69.8,65.8,29.88,SSW,207,0.0,0.0,87,0.00,OVC,,0.06,WeatherDisplay:10.37,2013-08-27 00:07:00,
2013-08-26 20:12:00,69.7,65.7,29.88,SSW,207,1.2,0.0,87,0.00,OVC,,0.06,WeatherDisplay:10.37,2013-08-27 00:12:00,
2013-08-26 20:17:00,69.7,66.0,29.88,SSW,207,0.0,0.0,88,0.00,OVC,,0.06,WeatherDisplay:10.37,2013-08-27 00:17:00,
2013-08-26 20:22:00,69.6,65.9,29.88,South,177,1.2,0.0,88,0.00,OVC,,0.06,WeatherDisplay:10.37,2013-08-27 00:22:00,
2013-08-26 20:27:00,69.6,65.9,29.88,NNW,347,2.3,2.3,88,0.00,OVC,,0.06,WeatherDisplay:10.37,2013-08-27 00:27:00,
2013-08-26 20:32:00,69.5,65.8,29.88,NNW,347,0.0,0.0,88,0.00,OVC,,0.06,WeatherDisplay:10.37,2013-08-27 00:32:00,
2013-08-26 20:37:00,69.5,65.8,29.88,NNW,347,0.0,0.0,88,0.00,OVC,,0.06,WeatherDisplay:10.37,2013-08-27 00:37:00,
2013-08-26 20:42:00,69.4,65.7,29.88,North,351,0.0,0.0,88,0.00,OVC,,0.06,WeatherDisplay:10.37,2013-08-27 00:42:00,
2013-08-26 20:47:00,69.4,65.7,29.88,North,355,0.0,0.0,88,0.00,OVC,,0.06,WeatherDisplay:10.37,2013-08-27 00:47:00,
2013-08-26 20:52:00,69.4,65.7,29.88,North,355,0.0,0.0,88,0.00,OVC,,0.06,WeatherDisplay:10.37,2013-08-27 00:52:00,
2013-08-26 20:57:00,69.3,65.6,29.88,East,88,0.0,0.0,88,0.00,OVC,,0.06,WeatherDisplay:10.37,2013-08-27 00:57:00,
2013-08-26 21:02:00,69.3,65.6,29.88,WSW,257,0.0,0.0,88,0.00,OVC,,0.06,WeatherDisplay:10.37,2013-08-27 01:02:00,
2013-08-26 21:07:00,69.3,65.6,29.88,SSE,151,1.2,1.2,88,0.00,OVC,,0.06,WeatherDisplay:10.37,2013-08-27 01:07:00,
2013-08-26 21:12:00,69.3,65.6,29.89,SSE,151,1.2,1.2,88,0.00,OVC,,0.06,WeatherDisplay:10.37,2013-08-27 01:12:00,
2013-08-26 21:17:00,69.2,65.8,29.89,SSE,151,0.0,0.0,89,0.00,OVC,,0.06,WeatherDisplay:10.37,2013-08-27 01:17:00,
2013-08-26 21:22:00,69.1,65.7,29.89,SSE,151,0.0,0.0,89,0.00,OVC,,0.06,WeatherDisplay:10.37,2013-08-27 01:22:00,
2013-08-26 21:27:00,69.0,65.6,29.89,SSE,151,0.0,0.0,89,0.00,OVC,,0.06,WeatherDisplay:10.37,2013-08-27 01:27:00,
2013-08-26 21:32:00,69.0,65.6,29.89,SSE,151,0.0,0.0,89,0.00,OVC,,0.06,WeatherDisplay:10.37,2013-08-27 01:32:00,
2013-08-26 21:37:00,68.9,65.8,29.89,SSE,151,0.0,0.0,90,0.00,OVC,,0.06,WeatherDisplay:10.37,2013-08-27 01:37:00,
2013-08-26 21:42:00,68.8,65.4,29.89,SSE,151,0.0,0.0,89,0.00,OVC,,0.06,WeatherDisplay:10.37,2013-08-27 01:42:00,
2013-08-26 21:47:00,68.7,65.6,29.89,SSE,151,0.0,0.0,90,0.00,OVC,,0.06,WeatherDisplay:10.37,2013-08-27 01:47:00,
2013-08-26 21:52:00,68.6,65.5,29.88,SSE,152,0.0,1.1,90,0.00,OVC,,0.06,WeatherDisplay:10.37,2013-08-27 01:52:00,
2013-08-26 21:57:00,68.5,65.4,29.88,SSE,152,0.0,0.0,90,0.00,OVC,,0.06,WeatherDisplay:10.37,2013-08-27 01:57:00,
2013-08-26 22:02:00,68.5,65.4,29.88,SSE,152,0.0,0.0,90,0.00,OVC,,0.06,WeatherDisplay:10.37,2013-08-27 02:02:00,
2013-08-26 22:07:00,68.4,65.7,29.88,SSE,152,0.0,0.0,91,0.00,OVC,,0.06,WeatherDisplay:10.37,2013-08-27 02:07:00,
2013-08-26 22:12:00,68.3,65.6,29.88,SSE,152,0.0,0.0,91,0.00,OVC,,0.06,WeatherDisplay:10.37,2013-08-27 02:12:00,
2013-08-26 22:17:00,68.2,65.5,29.88,SSE,152,0.0,0.0,91,0.00,SCT,,0.06,WeatherDisplay:10.37,2013-08-27 02:17:00,
2013-08-26 22:22:00,68.1,65.4,29.88,SSE,152,0.0,0.0,91,0.00,SCT,,0.06,WeatherDisplay:10.37,2013-08-27 02:22:00,
2013-08-26 22:27:00,68.0,65.3,29.88,SSE,152,0.0,0.0,91,0.00,SCT,,0.06,WeatherDisplay:10.37,2013-08-27 02:27:00,
2013-08-26 22:32:00,68.0,65.3,29.88,SSE,152,0.0,0.0,91,0.00,SCT,,0.06,WeatherDisplay:10.37,2013-08-27 02:32:00,
2013-08-26 22:37:00,67.9,65.5,29.88,SSE,152,0.0,0.0,92,0.00,SCT,,0.06,WeatherDisplay:10.37,2013-08-27 02:37:00,
2013-08-26 22:42:00,67.8,65.4,29.88,SSE,152,0.0,0.0,92,0.00,SCT,,0.06,WeatherDisplay:10.37,2013-08-27 02:42:00,
2013-08-26 22:47:00,67.7,65.3,29.87,SSE,152,0.0,0.0,92,0.00,SCT,,0.06,WeatherDisplay:10.37,2013-08-27 02:47:00,
2013-08-26 22:52:00,67.7,65.3,29.87,SSE,152,0.0,0.0,92,0.00,SCT,,0.06,WeatherDisplay:10.37,2013-08-27 02:52:00,
2013-08-26 22:57:00,67.7,65.3,29.87,WSW,239,2.3,2.3,92,0.00,SCT,,0.06,WeatherDisplay:10.37,2013-08-27 02:57:00,
2013-08-26 23:02:00,67.6,65.5,29.87,WSW,241,0.0,0.0,93,0.00,-RA,,0.06,WeatherDisplay:10.37,2013-08-27 03:02:00,
2013-08-26 23:07:00,67.5,65.4,29.86,WSW,241,0.0,0.0,93,0.00,-RA,,0.06,WeatherDisplay:10.37,2013-08-27 03:07:00,
2013-08-26 23:12:00,67.5,65.4,29.86,WSW,241,0.0,0.0,93,0.00,-RA,,0.06,WeatherDisplay:10.37,2013-08-27 03:12:00,
2013-08-26 23:17:00,67.4,65.6,29.86,WSW,241,0.0,0.0,94,0.00,-RA,,0.06,WeatherDisplay:10.37,2013-08-27 03:17:00,
2013-08-26 23:22:00,67.3,65.5,29.86,WSW,240,0.0,0.0,94,0.00,-RA,,0.06,WeatherDisplay:10.37,2013-08-27 03:22:00,
2013-08-26 23:27:00,67.2,65.7,29.86,WSW,240,0.0,0.0,95,0.01,-RA,,0.07,WeatherDisplay:10.37,2013-08-27 03:27:00,
2013-08-26 23:32:00,67.1,65.6,29.86,WSW,241,0.0,0.0,95,0.01,-RA,,0.07,WeatherDisplay:10.37,2013-08-27 03:32:00,
2013-08-26 23:37:00,67.1,65.6,29.86,WSW,241,0.0,0.0,95,0.01,-RA,,0.07,WeatherDisplay:10.37,2013-08-27 03:37:00,
2013-08-26 23:42:00,67.0,65.5,29.85,WSW,241,0.0,0.0,95,0.01,-RA,,0.07,WeatherDisplay:10.37,2013-08-27 03:42:00,
2013-08-26 23:47:00,66.9,65.4,29.85,WSW,241,0.0,0.0,95,0.01,-RA,,0.07,WeatherDisplay:10.37,2013-08-27 03:47:00,
2013-08-26 23:52:00,66.8,65.6,29.85,WSW,241,0.0,0.0,96,0.01,-RA,,0.07,WeatherDisplay:10.37,2013-08-27 03:52:00,
2013-08-26 23:57:00,66.8,65.6,29.85,WSW,241,0.0,0.0,96,0.01,-RA,,0.07,WeatherDisplay:10.37,2013-08-27 03:57:00,